Content
SEND FEEDBACK

Daily
Averages
Monthly
Summary
United States of America

MULINO, OREGON


Home > North America > United States > Oregon
Elevation: 37 feet     Latitude: 45 09N     Longitude: 122 35W

WEATHER
 
SELECT A DAY
Number of Records: 249,939;   Date Range: 1/1/95 - 9/21/14
 
SHARE

PRINT THIS DATA

[ ← Previous Day ]
WEATHER ALMANAC - FEBRUARY 13, 2013
[ Next Day → ]
[ °C ]   °F
Weather ElementAverageHighLow
Temperature48.9 °F52 °F (12:53 pm)44.1 °F (10:53 pm)
Dewpoint43.5 °F45 °F (6:53 am)41 °F (2:53 pm)
Humidity81.8 %93 % (5:41 am)66 % (2:53 pm)
Barometer30.47 in30.53 in (10:53 pm)30.45 in (3:17 am)
Wind Speed6.4 mph11.5 mph (3:53 am)
Weather ElementAverage
Visibility10 mi
Wind DirectionSSE (169.7 °)

Weather ElementTotal
Precipitation---
Heating Degree Days17 (Base 65)
Averaged from 39 records on February 13, 2013
WEATHER CONDITIONS BREAKOUT
WIND DIRECTION BREAKOUT
WEATHER BY HOUR - FEBRUARY 13, 2013
[ °C ]   °F
Local TimeTemperatureDewpointHumidityBarometerVisibilityWind DirectionWind SpeedGust SpeedPrecipitationEventsConditions
1:53 AM46.9 °F44.1 °F90 %30.46 in10.0 miSSW (200°)8.1 mphOvercast
2:13 AM46.4 °F42.8 °F87 %30.46 in10.0 miSSW (200°)4.6 mphOvercast
2:53 AM46.9 °F43.0 °F86 %30.46 in10.0 miSSW (210°)4.6 mphOvercast
3:07 AM46.4 °F42.8 °F87 %30.46 in10.0 miSSW (210°)4.6 mphOvercast
3:17 AM48.2 °F42.8 °F82 %30.45 in10.0 miSSW (200°)8.1 mphOvercast
3:53 AM46.9 °F43.0 °F86 %30.45 in10.0 miSouth (190°)11.5 mphOvercast
4:53 AM46.9 °F44.1 °F90 %30.45 in10.0 miSSW (200°)8.1 mphOvercast
5:41 AM46.4 °F44.6 °F93 %30.45 in10.0 miSSW (200°)5.8 mphOvercast
5:53 AM46.9 °F44.1 °F90 %30.45 in10.0 miSouth (190°)6.9 mphOvercast
6:53 AM46.9 °F45.0 °F93 %30.45 in10.0 miSouth (190°)9.2 mphOvercast
7:09 AM46.4 °F44.6 °F93 %30.45 in10.0 miSSW (200°)6.9 mphOvercast
7:53 AM46.9 °F44.1 °F90 %30.46 in10.0 miSouth (190°)8.1 mphOvercast
8:28 AM48.2 °F44.6 °F87 %30.46 in10.0 miSouth (190°)10.4 mphOvercast
8:53 AM48.0 °F44.1 °F86 %30.47 in10.0 miSouth (190°)10.4 mphOvercast
9:07 AM48.2 °F44.6 °F87 %30.47 in10.0 miSouth (190°)10.4 mphOvercast
9:53 AM48.9 °F44.1 °F83 %30.49 in10.0 miSSW (200°)10.4 mphOvercast
10:53 AM50.0 °F45.0 °F83 %30.49 in10.0 miSSW (210°)8.1 mphOvercast
11:06 AM50.0 °F44.6 °F82 %30.49 in10.0 miSSW (200°)6.9 mphOvercast
11:36 AM50.0 °F44.6 °F82 %30.49 in10.0 miSW (230°)8.1 mphOvercast
11:53 AM50.0 °F45.0 °F83 %30.49 in10.0 miSSW (210°)8.1 mphOvercast
12:24 PM51.8 °F44.6 °F76 %30.47 in10.0 miSW (220°)8.1 mphMostly Cloudy
12:31 PM51.8 °F44.6 °F76 %30.47 in10.0 miSSW (200°)5.8 mphOvercast
12:50 PM51.8 °F44.6 °F76 %30.46 in10.0 miSW (220°)8.1 mphOvercast
12:53 PM52.0 °F44.1 °F74 %30.47 in10.0 miSW (220°)8.1 mphOvercast
1:25 PM51.8 °F44.6 °F76 %30.46 in10.0 miVariable5.8 mphOvercast
1:45 PM51.8 °F44.6 °F76 %30.46 in10.0 miWest (260°)8.1 mphOvercast
1:53 PM52.0 °F44.1 °F74 %30.46 in10.0 miWest (260°)8.1 mphOvercast
2:10 PM51.8 °F44.6 °F76 %30.45 in10.0 miWSW (250°)9.2 mphOvercast
2:26 PM51.8 °F42.8 °F71 %30.45 in10.0 miWSW (250°)8.1 mphOvercast
2:53 PM52.0 °F41.0 °F66 %30.45 in10.0 miSW (230°)8.1 mphOvercast
3:53 PM51.1 °F42.1 °F71 %30.46 in10.0 miWSW (240°)5.8 mphOvercast
4:53 PM51.1 °F41.0 °F68 %30.46 in10.0 miWSW (250°)3.5 mphOvercast
5:53 PM50.0 °F41.0 °F71 %30.47 in10.0 miCalmOvercast
6:53 PM48.9 °F43.0 °F80 %30.48 in10.0 miCalmOvercast
7:53 PM48.0 °F42.1 °F80 %30.49 in10.0 miCalmOvercast
8:53 PM48.0 °F42.1 °F80 %30.51 in10.0 miNNE (20°)3.5 mphOvercast
9:53 PM46.9 °F41.0 °F80 %30.52 in10.0 miCalmOvercast
10:53 PM44.1 °F41.0 °F89 %30.53 in10.0 miCalmOvercast
11:53 PM45.0 °F42.1 °F90 %30.53 in10.0 miCalmOvercast
Hourly data recorded from KUAO, located miles away from Mulino, Oregon







STORIES FROM OUR PARTNERS